FW7968 Weather Reports


Display with metric or nautical units.
time (UTC)temp
F
wind
direction
speed
MPH
gust
MPH
rain 1hr
in
rain 24hr
in
rain mn
in
humidity
%
barometer
mb
20260504021554 48 146 0.0 2.0 0.00 0.00 0.00 53 1012.7
20260504020056 48 321 0.0 1.0 0.00 0.00 0.00 52 1012.6
20260504014611 49 360 0.0 2.0 0.00 0.00 0.00 52 1012.5
20260504013103 50 72 0.0 2.0 0.00 0.00 0.00 50 1012.4
20260504011603 50 134 0.0 2.0 0.00 0.00 0.00 50 1012.4
20260504010101 51 296 0.0 2.0 0.00 0.00 0.00 47 1012.4
20260504004601 52 276 2.0 8.0 0.00 0.00 0.00 46 1012.4
20260504003101 52 198 1.0 5.0 0.00 0.00 0.00 46 1012.4
20260504001623 52 260 1.0 6.0 0.00 0.00 0.00 45 1012.4
20260504000107 52 218 2.0 8.0 0.00 0.00 0.00 44 1012.3
20260503234604 52 286 2.0 9.0 0.00 0.00 0.00 45 1012.4
20260503233104 52 239 2.0 7.0 0.00 0.00 0.00 44 1012.3
20260503231502 53 251 2.0 7.0 0.00 0.00 0.00 44 1012.3
20260503230108 53 266 4.0 10.0 0.00 0.00 0.00 43 1012.1
20260503224605 53 196 4.0 9.0 0.00 0.00 0.00 43 1012.1
20260503223002 54 360 2.0 10.0 0.00 0.00 0.00 42 1012.3
20260503221503 55 322 3.0 6.0 0.00 0.00 0.00 41 1012.2
20260503220010 54 326 1.0 9.0 0.00 0.00 0.00 43 1012.2
20260503214504 54 11 1.0 8.0 0.00 0.00 0.00 42 1012.2
20260503213009 54 113 0.0 7.0 0.00 0.00 0.00 44 1012.2
20260503211507 54 82 5.0 20.0 0.00 0.00 0.00 41 1012.1
20260503210008 55 184 2.0 6.0 0.00 0.00 0.00 43 1012.2
20260503204509 55 93 3.0 10.0 0.00 0.00 0.00 41 1012.1
20260503203020 56 9 5.0 14.0 0.00 0.00 0.00 40 1012.1
20260503201515 54 42 1.0 14.0 0.00 0.00 0.00 42 1012.4
20260503200013 54 41 2.0 11.0 0.00 0.00 0.00 42 1012.6
20260503194511 54 113 2.0 11.0 0.00 0.00 0.00 44 1012.7
20260503193013 53 126 3.0 8.0 0.00 0.00 0.00 47 1013.0
20260503191520 54 300 1.0 10.0 0.00 0.00 0.00 45 1013.2
20260503190016 54 74 4.0 8.0 0.00 0.00 0.00 42 1013.4
20260503184517 53 153 3.0 6.0 0.00 0.00 0.00 45 1013.4
20260503183028 52 326 2.0 7.0 0.00 0.00 0.00 48 1013.5
20260503181519 53 257 3.0 8.0 0.00 0.00 0.00 46 1013.5
20260503180021 53 355 3.0 8.0 0.00 0.00 0.00 44 1013.6
20260503174521 53 129 3.0 10.0 0.00 0.00 0.00 45 1013.7
20260503173024 53 271 3.0 20.0 0.00 0.00 0.00 43 1013.9
20260503171524 52 170 3.0 11.0 0.00 0.00 0.00 46 1014.2
20260503081628 34 340 1.0 5.0 0.00 0.00 0.00 83 1015.0
20260503080112 34 121 1.0 6.0 0.00 0.00 0.00 83 1014.9
20260503071601 34 209 0.0 5.0 0.00 0.00 0.00 83 1014.8
20260503070107 34 76 0.0 5.0 0.00 0.00 0.00 82 1014.8
20260503054507 34 273 0.0 5.0 0.00 0.00 0.00 79 1015.1
20260503053004 34 347 0.0 4.0 0.00 0.00 0.00 80 1015.2
20260503051502 35 95 1.0 4.0 0.00 0.00 0.00 78 1015.2
20260503050010 35 199 0.0 4.0 0.00 0.00 0.00 77 1015.4
20260503044504 35 299 2.0 5.0 0.00 0.00 0.00 77 1015.5
20260503043006 35 248 1.0 7.0 0.00 0.00 0.00 76 1015.5
20260503041509 35 321 0.0 4.0 0.00 0.00 0.00 76 1015.5
20260503040008 36 265 0.0 4.0 0.00 0.00 0.00 77 1015.5
20260503034509 36 251 1.0 3.0 0.00 0.00 0.00 76 1015.5
20260503033012 36 97 0.0 4.0 0.00 0.00 0.00 75 1015.6
20260503031512 36 153 2.0 4.0 0.00 0.00 0.00 73 1015.7
20260503030013 37 194 0.0 6.0 0.00 0.00 0.00 74 1015.8
20260503024515 37 243 2.0 7.0 0.00 0.00 0.00 74 1015.8
20260503023016 37 23 0.0 5.0 0.00 0.00 0.00 72 1015.8